Time,TemperatureF,DewpointF,PressureIn,WindDirection,WindDirectionDegrees,WindSpeedMPH,WindSpeedGustMPH,Humidity,HourlyPrecipIn,Conditions,Clouds,dailyrainin,SoftwareType,DateUTC
2013-02-21 00:00:00,72.5,66.7,30.13,East,90,4.9,7.5,81,0.00,,,0.00,Rainwise IP-100,2013-02-21 05:00:00,
2013-02-21 00:05:00,72.5,66.7,30.13,ENE,67,5.1,7.2,82,0.00,,,0.00,Rainwise IP-100,2013-02-21 05:05:00,
2013-02-21 00:10:00,72.6,66.7,30.13,ENE,67,4.7,5.4,82,0.00,,,0.00,Rainwise IP-100,2013-02-21 05:10:00,
2013-02-21 00:15:00,72.6,66.7,30.12,ENE,67,4.4,7.2,82,0.00,,,0.00,Rainwise IP-100,2013-02-21 05:15:00,
2013-02-21 00:20:00,72.6,67.0,30.12,ENE,67,5.6,7.2,83,0.00,,,0.00,Rainwise IP-100,2013-02-21 05:20:00,
2013-02-21 00:25:00,72.5,67.0,30.12,East,90,2.8,7.9,83,0.00,,,0.00,Rainwise IP-100,2013-02-21 05:25:00,
2013-02-21 00:30:00,72.5,67.0,30.12,ENE,67,3.7,5.6,83,0.00,,,0.00,Rainwise IP-100,2013-02-21 05:30:00,
2013-02-21 00:36:00,72.5,67.0,30.11,East,90,1.6,7.0,83,0.00,,,0.00,Rainwise IP-100,2013-02-21 05:36:00,
2013-02-21 00:41:00,72.4,66.7,30.12,ESE,112,2.3,3.5,83,0.00,,,0.00,Rainwise IP-100,2013-02-21 05:41:00,
2013-02-21 00:46:00,72.2,66.7,30.12,ENE,67,0.0,5.4,83,0.00,,,0.00,Rainwise IP-100,2013-02-21 05:46:00,
2013-02-21 00:51:00,72.2,67.0,30.11,SE,135,2.8,4.2,84,0.00,,,0.00,Rainwise IP-100,2013-02-21 05:51:00,
2013-02-21 00:55:00,72.1,66.7,30.11,East,90,4.4,4.9,84,0.00,,,0.00,Rainwise IP-100,2013-02-21 05:55:00,
2013-02-21 01:00:00,72.1,66.7,30.11,ESE,112,1.9,5.1,84,0.00,,,0.00,Rainwise IP-100,2013-02-21 06:00:00,
2013-02-21 01:05:00,72.1,66.7,30.11,East,90,3.7,7.0,83,0.00,,,0.00,Rainwise IP-100,2013-02-21 06:05:00,
2013-02-21 01:10:00,72.1,66.7,30.11,ESE,112,0.0,4.4,83,0.00,,,0.00,Rainwise IP-100,2013-02-21 06:10:00,
2013-02-21 01:11:00,72.1,66.7,30.11,ENE,67,4.0,4.4,83,0.00,,,0.00,Rainwise IP-100,2013-02-21 06:11:00,
2013-02-21 01:16:00,72.2,66.7,30.11,ESE,112,2.1,7.9,82,0.00,,,0.00,Rainwise IP-100,2013-02-21 06:16:00,
2013-02-21 01:22:00,72.2,66.7,30.10,ESE,112,2.3,4.2,82,0.00,,,0.00,Rainwise IP-100,2013-02-21 06:22:00,
2013-02-21 01:27:00,72.2,66.7,30.10,East,90,3.3,6.5,82,0.00,,,0.00,Rainwise IP-100,2013-02-21 06:27:00,
2013-02-21 01:32:00,72.3,66.7,30.10,SE,135,2.6,6.1,83,0.00,,,0.00,Rainwise IP-100,2013-02-21 06:32:00,
2013-02-21 01:37:00,72.3,66.7,30.10,ESE,112,4.7,8.2,82,0.00,,,0.00,Rainwise IP-100,2013-02-21 06:37:00,
2013-02-21 01:42:00,72.3,66.7,30.09,ESE,112,4.4,8.6,82,0.00,,,0.00,Rainwise IP-100,2013-02-21 06:42:00,
2013-02-21 01:47:00,72.3,66.7,30.09,SE,135,5.4,8.9,82,0.00,,,0.00,Rainwise IP-100,2013-02-21 06:47:00,
2013-02-21 01:52:00,72.3,66.7,30.09,ESE,112,3.7,6.1,82,0.00,,,0.00,Rainwise IP-100,2013-02-21 06:52:00,
2013-02-21 01:57:00,72.4,66.7,30.09,SSE,157,2.8,8.2,82,0.00,,,0.00,Rainwise IP-100,2013-02-21 06:57:00,
2013-02-21 02:03:00,72.4,66.7,30.08,SE,135,6.8,7.5,82,0.00,,,0.00,Rainwise IP-100,2013-02-21 07:03:00,
2013-02-21 02:08:00,72.5,66.7,30.09,SE,135,7.2,8.4,81,0.00,,,0.00,Rainwise IP-100,2013-02-21 07:08:00,
2013-02-21 02:13:00,72.5,66.3,30.08,SSE,157,8.2,10.7,80,0.00,,,0.00,Rainwise IP-100,2013-02-21 07:13:00,
2013-02-21 02:18:00,72.7,66.3,30.08,SE,135,2.1,10.5,80,0.00,,,0.00,Rainwise IP-100,2013-02-21 07:18:00,
2013-02-21 02:23:00,72.8,66.3,30.08,SSE,157,2.3,9.1,80,0.00,,,0.00,Rainwise IP-100,2013-02-21 07:23:00,
2013-02-21 02:28:00,72.8,66.3,30.07,SSE,157,2.8,10.0,80,0.00,,,0.00,Rainwise IP-100,2013-02-21 07:28:00,
2013-02-21 02:33:00,72.7,66.7,30.08,SSE,157,2.8,5.8,81,0.00,,,0.00,Rainwise IP-100,2013-02-21 07:33:00,
2013-02-21 02:38:00,72.6,66.7,30.07,SSE,157,3.0,7.5,81,0.00,,,0.00,Rainwise IP-100,2013-02-21 07:38:00,
2013-02-21 02:44:00,72.6,66.7,30.08,ESE,112,1.6,7.0,81,0.00,,,0.00,Rainwise IP-100,2013-02-21 07:44:00,
2013-02-21 02:49:00,72.6,66.3,30.07,SSE,157,6.3,9.3,80,0.00,,,0.00,Rainwise IP-100,2013-02-21 07:49:00,
2013-02-21 02:54:00,72.6,66.0,30.07,SSE,157,4.4,9.1,79,0.00,,,0.00,Rainwise IP-100,2013-02-21 07:54:00,
2013-02-21 02:59:00,72.7,65.5,30.06,SE,135,3.0,8.6,78,0.00,,,0.00,Rainwise IP-100,2013-02-21 07:59:00,
2013-02-21 03:04:00,72.8,65.5,30.07,SE,135,4.0,10.0,78,0.00,,,0.00,Rainwise IP-100,2013-02-21 08:04:00,
2013-02-21 03:09:00,72.8,65.5,30.06,SSE,157,2.1,8.6,78,0.00,,,0.00,Rainwise IP-100,2013-02-21 08:09:00,
2013-02-21 03:14:00,72.8,65.5,30.06,SE,135,5.4,8.6,78,0.00,,,0.00,Rainwise IP-100,2013-02-21 08:14:00,
2013-02-21 03:20:00,72.8,65.5,30.06,SSE,157,1.6,7.7,78,0.00,,,0.00,Rainwise IP-100,2013-02-21 08:20:00,
2013-02-21 03:25:00,72.8,65.5,30.06,SE,135,4.9,7.9,78,0.00,,,0.00,Rainwise IP-100,2013-02-21 08:25:00,
2013-02-21 03:30:00,72.9,66.0,30.06,SE,135,4.9,9.3,78,0.00,,,0.00,Rainwise IP-100,2013-02-21 08:30:00,
2013-02-21 03:35:00,72.9,66.0,30.06,SE,135,9.1,11.0,78,0.00,,,0.00,Rainwise IP-100,2013-02-21 08:35:00,
2013-02-21 03:40:00,72.9,66.0,30.05,SE,135,5.4,10.7,78,0.00,,,0.00,Rainwise IP-100,2013-02-21 08:40:00,
2013-02-21 03:45:00,72.9,66.0,30.05,SSE,157,8.9,12.6,78,0.00,,,0.00,Rainwise IP-100,2013-02-21 08:45:00,
2013-02-21 03:50:00,73.0,66.0,30.05,SE,135,6.5,12.8,78,0.00,,,0.00,Rainwise IP-100,2013-02-21 08:50:00,
2013-02-21 03:55:00,73.0,66.0,30.06,SSE,157,5.1,11.4,78,0.00,,,0.00,Rainwise IP-100,2013-02-21 08:55:00,
2013-02-21 04:01:00,72.9,66.0,30.05,SE,135,5.6,12.1,78,0.00,,,0.00,Rainwise IP-100,2013-02-21 09:01:00,
2013-02-21 04:06:00,72.9,66.0,30.05,SSE,157,8.4,10.3,78,0.00,,,0.00,Rainwise IP-100,2013-02-21 09:06:00,
2013-02-21 04:11:00,72.9,66.0,30.06,ESE,112,7.0,10.7,78,0.00,,,0.00,Rainwise IP-100,2013-02-21 09:11:00,
2013-02-21 04:16:00,73.0,66.0,30.06,ESE,112,1.9,11.2,78,0.00,,,0.00,Rainwise IP-100,2013-02-21 09:16:00,
2013-02-21 04:22:00,73.0,66.0,30.05,ESE,112,7.7,11.2,78,0.00,,,0.00,Rainwise IP-100,2013-02-21 09:22:00,
2013-02-21 04:27:00,72.9,66.3,30.06,ESE,112,6.8,10.5,79,0.00,,,0.00,Rainwise IP-100,2013-02-21 09:27:00,
2013-02-21 04:32:00,72.9,66.3,30.06,ESE,112,4.4,10.7,79,0.00,,,0.00,Rainwise IP-100,2013-02-21 09:32:00,
2013-02-21 04:37:00,72.7,66.0,30.06,SE,135,3.5,10.0,79,0.00,,,0.00,Rainwise IP-100,2013-02-21 09:37:00,
2013-02-21 04:42:00,72.5,65.5,30.07,East,90,7.7,7.7,78,0.00,,,0.00,Rainwise IP-100,2013-02-21 09:42:00,
2013-02-21 04:47:00,72.7,65.5,30.06,ESE,112,4.9,9.8,78,0.00,,,0.00,Rainwise IP-100,2013-02-21 09:47:00,
2013-02-21 04:52:00,72.9,66.0,30.06,ESE,112,5.8,11.4,78,0.00,,,0.00,Rainwise IP-100,2013-02-21 09:52:00,
2013-02-21 04:58:00,72.9,66.0,30.06,South,180,3.7,8.9,78,0.00,,,0.00,Rainwise IP-100,2013-02-21 09:58:00,
2013-02-21 05:03:00,72.8,65.5,30.07,SE,135,5.6,10.0,78,0.00,,,0.00,Rainwise IP-100,2013-02-21 10:03:00,
2013-02-21 05:08:00,72.9,65.5,30.07,ESE,112,5.4,8.6,77,0.00,,,0.00,Rainwise IP-100,2013-02-21 10:08:00,
2013-02-21 05:13:00,72.9,66.0,30.07,ESE,112,5.1,9.6,78,0.00,,,0.00,Rainwise IP-100,2013-02-21 10:13:00,
2013-02-21 05:18:00,72.7,65.5,30.07,SE,135,5.8,7.5,78,0.00,,,0.00,Rainwise IP-100,2013-02-21 10:18:00,
2013-02-21 05:23:00,72.7,65.5,30.08,SE,135,7.2,9.3,78,0.00,,,0.00,Rainwise IP-100,2013-02-21 10:23:00,
2013-02-21 05:28:00,72.8,65.5,30.08,SSE,157,4.0,12.1,78,0.00,,,0.00,Rainwise IP-100,2013-02-21 10:28:00,
2013-02-21 05:33:00,72.7,65.5,30.08,SE,135,4.0,7.5,78,0.00,,,0.00,Rainwise IP-100,2013-02-21 10:33:00,
2013-02-21 05:38:00,72.6,65.5,30.08,ESE,112,4.9,10.3,78,0.00,,,0.00,Rainwise IP-100,2013-02-21 10:38:00,
2013-02-21 05:44:00,72.7,65.5,30.08,ESE,112,6.8,9.8,78,0.00,,,0.00,Rainwise IP-100,2013-02-21 10:44:00,
2013-02-21 05:49:00,72.7,65.0,30.09,SE,135,2.8,8.2,77,0.00,,,0.00,Rainwise IP-100,2013-02-21 10:49:00,
2013-02-21 05:54:00,72.7,65.0,30.09,ESE,112,4.7,5.6,77,0.00,,,0.00,Rainwise IP-100,2013-02-21 10:54:00,
2013-02-21 05:59:00,72.6,65.0,30.09,ESE,112,5.4,9.6,76,0.00,,,0.00,Rainwise IP-100,2013-02-21 10:59:00,
2013-02-21 06:04:00,72.6,65.0,30.08,ESE,112,8.2,8.2,76,0.00,,,0.00,Rainwise IP-100,2013-02-21 11:04:00,
2013-02-21 06:09:00,72.7,65.0,30.09,SSE,157,4.2,10.5,76,0.00,,,0.00,Rainwise IP-100,2013-02-21 11:09:00,
2013-02-21 06:14:00,72.8,65.0,30.10,ENE,67,1.2,5.8,76,0.00,,,0.00,Rainwise IP-100,2013-02-21 11:14:00,
2013-02-21 06:20:00,72.7,64.5,30.09,ESE,112,4.4,6.5,75,0.00,,,0.00,Rainwise IP-100,2013-02-21 11:20:00,
2013-02-21 06:25:00,72.7,64.5,30.10,SSE,157,5.1,8.9,75,0.00,,,0.00,Rainwise IP-100,2013-02-21 11:25:00,
2013-02-21 06:30:00,72.8,64.0,30.10,ESE,112,2.1,7.9,74,0.00,,,0.00,Rainwise IP-100,2013-02-21 11:30:00,
2013-02-21 06:35:00,72.9,64.5,30.10,SSE,157,2.3,8.4,74,0.00,,,0.00,Rainwise IP-100,2013-02-21 11:35:00,
2013-02-21 06:40:00,72.9,64.5,30.10,ESE,112,5.4,7.2,74,0.00,,,0.00,Rainwise IP-100,2013-02-21 11:40:00,
2013-02-21 06:45:00,72.9,64.5,30.10,ESE,112,3.5,8.4,74,0.00,,,0.00,Rainwise IP-100,2013-02-21 11:45:00,
2013-02-21 06:50:00,72.9,64.5,30.10,SE,135,4.0,8.2,74,0.00,,,0.00,Rainwise IP-100,2013-02-21 11:50:00,
2013-02-21 06:55:00,72.8,64.0,30.10,SSE,157,0.0,7.0,74,0.00,,,0.00,Rainwise IP-100,2013-02-21 11:55:00,
2013-02-21 07:01:00,72.9,64.5,30.10,SE,135,5.6,10.0,74,0.00,,,0.00,Rainwise IP-100,2013-02-21 12:01:00,
2013-02-21 07:06:00,73.0,64.5,30.10,SSE,157,5.8,8.4,74,0.00,,,0.00,Rainwise IP-100,2013-02-21 12:06:00,
2013-02-21 07:11:00,73.0,65.0,30.11,ESE,112,1.2,7.0,75,0.00,,,0.00,Rainwise IP-100,2013-02-21 12:11:00,
2013-02-21 07:16:00,72.9,65.0,30.11,SSE,157,2.6,6.1,75,0.00,,,0.00,Rainwise IP-100,2013-02-21 12:16:00,
2013-02-21 07:21:00,72.9,65.0,30.11,ESE,112,0.0,9.8,75,0.00,,,0.00,Rainwise IP-100,2013-02-21 12:21:00,
2013-02-21 07:26:00,72.9,65.0,30.11,East,90,1.2,3.7,75,0.00,,,0.00,Rainwise IP-100,2013-02-21 12:26:00,
2013-02-21 07:31:00,72.9,65.0,30.11,East,90,2.8,6.8,75,0.00,,,0.00,Rainwise IP-100,2013-02-21 12:31:00,
2013-02-21 07:37:00,72.9,65.0,30.12,SE,135,1.2,4.4,76,0.00,,,0.00,Rainwise IP-100,2013-02-21 12:37:00,
2013-02-21 07:42:00,73.0,65.0,30.12,SSE,157,2.3,2.8,76,0.00,,,0.00,Rainwise IP-100,2013-02-21 12:42:00,
2013-02-21 07:47:00,73.0,65.0,30.12,SE,135,0.0,5.6,76,0.00,,,0.00,Rainwise IP-100,2013-02-21 12:47:00,
2013-02-21 07:52:00,73.0,65.0,30.12,ESE,112,2.1,4.7,76,0.00,,,0.00,Rainwise IP-100,2013-02-21 12:52:00,
2013-02-21 07:57:00,73.3,65.5,30.12,ENE,67,3.7,5.1,76,0.00,,,0.00,Rainwise IP-100,2013-02-21 12:57:00,
2013-02-21 08:02:00,73.7,65.5,30.13,South,180,3.0,6.8,75,0.00,,,0.00,Rainwise IP-100,2013-02-21 13:02:00,
2013-02-21 08:07:00,74.1,65.0,30.12,East,90,4.7,5.4,73,0.00,,,0.00,Rainwise IP-100,2013-02-21 13:07:00,
2013-02-21 08:12:00,74.3,65.5,30.12,East,90,1.4,6.1,73,0.00,,,0.00,Rainwise IP-100,2013-02-21 13:12:00,
2013-02-21 08:18:00,74.2,65.5,30.12,ESE,112,0.0,4.4,73,0.00,,,0.00,Rainwise IP-100,2013-02-21 13:18:00,
2013-02-21 08:23:00,74.4,65.0,30.13,SE,135,2.3,3.7,72,0.00,,,0.00,Rainwise IP-100,2013-02-21 13:23:00,
2013-02-21 08:28:00,74.8,65.5,30.12,ESE,112,1.4,5.6,72,0.00,,,0.00,Rainwise IP-100,2013-02-21 13:28:00,
2013-02-21 08:33:00,75.1,65.0,30.14,ESE,112,0.0,4.7,71,0.00,,,0.00,Rainwise IP-100,2013-02-21 13:33:00,
2013-02-21 08:38:00,75.5,65.0,30.14,SSE,157,3.3,5.4,70,0.00,,,0.00,Rainwise IP-100,2013-02-21 13:38:00,
2013-02-21 08:43:00,75.5,64.5,30.14,East,90,2.6,5.4,69,0.00,,,0.00,Rainwise IP-100,2013-02-21 13:43:00,
2013-02-21 08:48:00,75.4,64.5,30.14,SSE,157,1.4,5.4,69,0.00,,,0.00,Rainwise IP-100,2013-02-21 13:48:00,
2013-02-21 08:54:00,75.7,64.5,30.14,SE,135,4.9,6.8,68,0.00,,,0.00,Rainwise IP-100,2013-02-21 13:54:00,
2013-02-21 08:59:00,76.0,64.5,30.14,ENE,67,6.1,6.1,68,0.00,,,0.00,Rainwise IP-100,2013-02-21 13:59:00,
2013-02-21 09:04:00,76.4,65.0,30.14,SE,135,0.0,7.7,67,0.00,,,0.00,Rainwise IP-100,2013-02-21 14:04:00,
2013-02-21 09:09:00,77.1,65.0,30.14,East,90,4.2,4.7,66,0.00,,,0.00,Rainwise IP-100,2013-02-21 14:09:00,
2013-02-21 09:14:00,77.5,65.5,30.14,ENE,67,1.6,7.0,66,0.00,,,0.00,Rainwise IP-100,2013-02-21 14:14:00,
2013-02-21 09:19:00,77.5,65.0,30.15,SSE,157,3.7,9.8,65,0.00,,,0.00,Rainwise IP-100,2013-02-21 14:19:00,
2013-02-21 09:25:00,77.4,65.0,30.15,SE,135,9.1,10.5,65,0.00,,,0.00,Rainwise IP-100,2013-02-21 14:25:00,
2013-02-21 09:30:00,76.9,65.0,30.15,SSE,157,1.4,11.4,66,0.00,,,0.00,Rainwise IP-100,2013-02-21 14:30:00,
2013-02-21 09:35:00,76.8,64.5,30.15,SSE,157,1.9,7.5,66,0.00,,,0.00,Rainwise IP-100,2013-02-21 14:35:00,
2013-02-21 09:40:00,76.7,65.0,30.14,ESE,112,4.9,7.2,67,0.00,,,0.00,Rainwise IP-100,2013-02-21 14:40:00,
2013-02-21 09:45:00,76.8,65.0,30.14,SSE,157,1.6,8.9,67,0.00,,,0.00,Rainwise IP-100,2013-02-21 14:45:00,
2013-02-21 09:50:00,76.9,65.0,30.14,SSE,157,7.2,9.8,66,0.00,,,0.00,Rainwise IP-100,2013-02-21 14:50:00,
2013-02-21 09:55:00,76.6,64.5,30.14,SE,135,3.5,11.7,66,0.00,,,0.00,Rainwise IP-100,2013-02-21 14:55:00,
2013-02-21 10:01:00,76.6,64.5,30.14,ESE,112,6.5,13.1,66,0.00,,,0.00,Rainwise IP-100,2013-02-21 15:01:00,
2013-02-21 10:06:00,76.7,65.0,30.14,SE,135,2.8,11.0,67,0.00,,,0.00,Rainwise IP-100,2013-02-21 15:06:00,
2013-02-21 10:11:00,76.7,65.0,30.14,ESE,112,7.0,10.7,67,0.00,,,0.00,Rainwise IP-100,2013-02-21 15:11:00,
2013-02-21 10:16:00,76.6,65.5,30.14,SE,135,6.8,12.1,68,0.00,,,0.00,Rainwise IP-100,2013-02-21 15:16:00,
2013-02-21 10:21:00,76.5,65.5,30.14,ESE,112,5.4,11.0,68,0.00,,,0.00,Rainwise IP-100,2013-02-21 15:21:00,
2013-02-21 10:26:00,76.7,66.0,30.14,SE,135,9.1,10.0,69,0.00,,,0.00,Rainwise IP-100,2013-02-21 15:26:00,
2013-02-21 10:31:00,76.7,66.0,30.14,ESE,112,5.8,11.0,69,0.00,,,0.00,Rainwise IP-100,2013-02-21 15:31:00,
2013-02-21 10:36:00,77.0,66.7,30.14,SSE,157,1.2,11.4,70,0.00,,,0.00,Rainwise IP-100,2013-02-21 15:36:00,
2013-02-21 10:42:00,77.5,66.7,30.14,ESE,112,5.8,11.7,69,0.00,,,0.00,Rainwise IP-100,2013-02-21 15:42:00,
2013-02-21 10:47:00,77.3,66.3,30.15,SSE,157,8.2,11.4,68,0.00,,,0.00,Rainwise IP-100,2013-02-21 15:47:00,
2013-02-21 10:52:00,76.9,66.0,30.15,SE,135,2.6,12.1,68,0.00,,,0.00,Rainwise IP-100,2013-02-21 15:52:00,
2013-02-21 10:57:00,77.0,66.0,30.15,SE,135,3.7,9.3,68,0.00,,,0.00,Rainwise IP-100,2013-02-21 15:57:00,
2013-02-21 11:02:00,77.1,66.0,30.14,SSE,157,2.3,12.8,68,0.00,,,0.00,Rainwise IP-100,2013-02-21 16:02:00,
2013-02-21 11:07:00,77.0,66.0,30.15,SE,135,7.9,11.9,68,0.00,,,0.00,Rainwise IP-100,2013-02-21 16:07:00,
2013-02-21 11:12:00,77.0,66.0,30.15,ESE,112,6.1,10.5,68,0.00,,,0.00,Rainwise IP-100,2013-02-21 16:12:00,
2013-02-21 11:18:00,77.1,66.0,30.15,ESE,112,7.0,11.2,68,0.00,,,0.00,Rainwise IP-100,2013-02-21 16:18:00,
2013-02-21 11:23:00,76.8,65.5,30.15,SSE,157,2.8,10.3,68,0.00,,,0.00,Rainwise IP-100,2013-02-21 16:23:00,
2013-02-21 11:28:00,77.0,66.3,30.15,ENE,67,3.7,9.8,69,0.00,,,0.00,Rainwise IP-100,2013-02-21 16:28:00,
2013-02-21 11:33:00,77.8,66.3,30.15,ESE,112,1.9,7.0,68,0.00,,,0.00,Rainwise IP-100,2013-02-21 16:33:00,
2013-02-21 11:38:00,78.4,66.7,30.15,South,180,4.4,9.8,67,0.00,,,0.00,Rainwise IP-100,2013-02-21 16:38:00,
2013-02-21 11:43:00,78.1,66.7,30.15,ESE,112,7.2,9.8,68,0.00,,,0.00,Rainwise IP-100,2013-02-21 16:43:00,
2013-02-21 11:48:00,77.7,66.7,30.15,SSE,157,4.9,11.4,69,0.00,,,0.00,Rainwise IP-100,2013-02-21 16:48:00,
2013-02-21 11:53:00,77.7,66.3,30.15,SE,135,3.0,7.9,68,0.00,,,0.00,Rainwise IP-100,2013-02-21 16:53:00,
2013-02-21 11:59:00,78.1,66.7,30.15,ESE,112,4.7,8.6,68,0.00,,,0.00,Rainwise IP-100,2013-02-21 16:59:00,
2013-02-21 12:04:00,78.0,66.3,30.15,SE,135,3.7,9.1,67,0.00,,,0.00,Rainwise IP-100,2013-02-21 17:04:00,
2013-02-21 12:09:00,78.2,66.7,30.14,ESE,112,3.0,8.4,67,0.00,,,0.00,Rainwise IP-100,2013-02-21 17:09:00,
2013-02-21 12:14:00,78.6,66.7,30.14,SSE,157,2.3,7.5,67,0.00,,,0.00,Rainwise IP-100,2013-02-21 17:14:00,
2013-02-21 12:19:00,78.9,66.7,30.14,ENE,67,7.0,7.0,66,0.00,,,0.00,Rainwise IP-100,2013-02-21 17:19:00,
2013-02-21 12:24:00,78.8,66.3,30.14,ESE,112,3.3,8.9,66,0.00,,,0.00,Rainwise IP-100,2013-02-21 17:24:00,
2013-02-21 12:29:00,78.8,66.7,30.13,SSE,157,0.0,7.9,67,0.00,,,0.00,Rainwise IP-100,2013-02-21 17:29:00,
2013-02-21 12:35:00,79.1,67.0,30.13,ESE,112,2.8,7.7,67,0.00,,,0.00,Rainwise IP-100,2013-02-21 17:35:00,
2013-02-21 12:40:00,79.1,66.7,30.13,ESE,112,3.5,10.0,66,0.00,,,0.00,Rainwise IP-100,2013-02-21 17:40:00,
2013-02-21 12:45:00,78.7,66.3,30.13,ESE,112,10.7,10.7,66,0.00,,,0.00,Rainwise IP-100,2013-02-21 17:45:00,
2013-02-21 12:50:00,77.9,66.7,30.13,ESE,112,6.8,12.6,68,0.00,,,0.00,Rainwise IP-100,2013-02-21 17:50:00,
2013-02-21 12:55:00,77.7,66.7,30.13,SSE,157,5.8,9.6,69,0.00,,,0.00,Rainwise IP-100,2013-02-21 17:55:00,
2013-02-21 13:00:00,77.4,67.0,30.13,SSE,157,4.0,9.6,70,0.00,,,0.00,Rainwise IP-100,2013-02-21 18:00:00,
2013-02-21 13:05:00,77.3,66.7,30.13,ESE,112,7.7,10.3,69,0.00,,,0.00,Rainwise IP-100,2013-02-21 18:05:00,
2013-02-21 13:10:00,77.2,66.7,30.12,SE,135,7.2,9.8,69,0.00,,,0.00,Rainwise IP-100,2013-02-21 18:10:00,
2013-02-21 13:16:00,77.1,66.3,30.12,ESE,112,5.1,10.0,69,0.00,,,0.00,Rainwise IP-100,2013-02-21 18:16:00,
2013-02-21 13:21:00,77.4,66.7,30.12,SSW,202,3.7,11.7,69,0.00,,,0.00,Rainwise IP-100,2013-02-21 18:21:00,
2013-02-21 13:26:00,77.8,67.0,30.12,ESE,112,7.5,8.4,70,0.00,,,0.00,Rainwise IP-100,2013-02-21 18:26:00,
2013-02-21 13:31:00,77.6,67.0,30.12,ESE,112,6.8,10.0,70,0.00,,,0.00,Rainwise IP-100,2013-02-21 18:31:00,
2013-02-21 13:36:00,77.3,67.0,30.11,SSE,157,5.4,11.2,70,0.00,,,0.00,Rainwise IP-100,2013-02-21 18:36:00,
2013-02-21 13:41:00,77.2,67.0,30.11,SSE,157,3.7,10.0,70,0.00,,,0.00,Rainwise IP-100,2013-02-21 18:41:00,
2013-02-21 13:46:00,77.5,67.0,30.11,South,180,2.1,8.9,70,0.00,,,0.00,Rainwise IP-100,2013-02-21 18:46:00,
2013-02-21 13:51:00,77.8,66.7,30.11,ESE,112,5.4,8.2,69,0.00,,,0.00,Rainwise IP-100,2013-02-21 18:51:00,
2013-02-21 13:57:00,77.8,67.0,30.10,SE,135,8.9,9.8,70,0.00,,,0.00,Rainwise IP-100,2013-02-21 18:57:00,
2013-02-21 14:02:00,77.7,67.0,30.10,SE,135,4.7,10.0,70,0.00,,,0.00,Rainwise IP-100,2013-02-21 19:02:00,
2013-02-21 14:07:00,77.5,67.0,30.10,SSE,157,3.0,9.3,70,0.00,,,0.00,Rainwise IP-100,2013-02-21 19:07:00,
2013-02-21 14:12:00,77.8,67.0,30.10,SE,135,2.8,8.9,70,0.00,,,0.00,Rainwise IP-100,2013-02-21 19:12:00,
2013-02-21 14:17:00,78.2,67.5,30.09,SSE,157,1.9,9.8,69,0.00,,,0.00,Rainwise IP-100,2013-02-21 19:17:00,
2013-02-21 14:22:00,78.3,67.5,30.09,ESE,112,7.0,8.9,69,0.00,,,0.00,Rainwise IP-100,2013-02-21 19:22:00,
2013-02-21 14:27:00,78.4,67.5,30.10,South,180,4.0,8.2,69,0.00,,,0.00,Rainwise IP-100,2013-02-21 19:27:00,
2013-02-21 14:33:00,78.5,67.0,30.10,SSE,157,6.5,9.8,68,0.00,,,0.00,Rainwise IP-100,2013-02-21 19:33:00,
2013-02-21 14:38:00,78.0,66.7,30.09,SSE,157,2.6,10.0,68,0.00,,,0.00,Rainwise IP-100,2013-02-21 19:38:00,
2013-02-21 14:43:00,77.9,67.5,30.09,South,180,3.0,11.0,70,0.00,,,0.00,Rainwise IP-100,2013-02-21 19:43:00,
2013-02-21 14:48:00,78.1,67.5,30.09,South,180,3.5,9.1,70,0.00,,,0.00,Rainwise IP-100,2013-02-21 19:48:00,
2013-02-21 14:53:00,77.8,67.0,30.09,SSE,157,3.7,7.9,70,0.00,,,0.00,Rainwise IP-100,2013-02-21 19:53:00,
2013-02-21 14:58:00,77.6,67.0,30.09,SSE,157,5.8,7.5,70,0.00,,,0.00,Rainwise IP-100,2013-02-21 19:58:00,
2013-02-21 15:03:00,77.6,67.5,30.09,ESE,112,8.6,8.6,71,0.00,,,0.00,Rainwise IP-100,2013-02-21 20:03:00,
2013-02-21 15:08:00,77.7,67.5,30.09,South,180,5.1,10.0,71,0.00,,,0.00,Rainwise IP-100,2013-02-21 20:08:00,
2013-02-21 15:14:00,77.5,67.5,30.09,SE,135,7.5,11.4,71,0.00,,,0.00,Rainwise IP-100,2013-02-21 20:14:00,
2013-02-21 15:19:00,77.0,67.5,30.09,SE,135,5.8,8.9,72,0.00,,,0.00,Rainwise IP-100,2013-02-21 20:19:00,
2013-02-21 15:24:00,76.4,67.0,30.08,ESE,112,7.9,9.8,73,0.00,,,0.00,Rainwise IP-100,2013-02-21 20:24:00,
2013-02-21 15:29:00,76.1,66.7,30.09,ESE,112,6.1,11.2,73,0.00,,,0.00,Rainwise IP-100,2013-02-21 20:29:00,
2013-02-21 15:34:00,76.0,66.7,30.09,SE,135,7.7,9.8,73,0.00,,,0.00,Rainwise IP-100,2013-02-21 20:34:00,
2013-02-21 15:39:00,75.9,66.7,30.08,SSE,157,5.4,11.9,73,0.00,,,0.00,Rainwise IP-100,2013-02-21 20:39:00,
2013-02-21 15:44:00,76.0,66.7,30.09,ESE,112,7.5,9.6,73,0.00,,,0.00,Rainwise IP-100,2013-02-21 20:44:00,
2013-02-21 15:50:00,76.2,66.7,30.08,SE,135,2.6,8.6,73,0.00,,,0.00,Rainwise IP-100,2013-02-21 20:50:00,
2013-02-21 15:55:00,76.5,67.0,30.08,SSE,157,4.2,7.0,73,0.00,,,0.00,Rainwise IP-100,2013-02-21 20:55:00,
2013-02-21 16:00:00,77.1,67.5,30.08,ESE,112,6.1,8.9,72,0.00,,,0.00,Rainwise IP-100,2013-02-21 21:00:00,
2013-02-21 16:05:00,76.9,67.5,30.09,SE,135,4.0,10.3,72,0.00,,,0.00,Rainwise IP-100,2013-02-21 21:05:00,
2013-02-21 16:10:00,76.3,66.7,30.09,SSE,157,6.8,12.4,73,0.00,,,0.00,Rainwise IP-100,2013-02-21 21:10:00,
2013-02-21 16:15:00,76.2,66.7,30.08,ESE,112,4.4,9.1,73,0.00,,,0.00,Rainwise IP-100,2013-02-21 21:15:00,
2013-02-21 16:20:00,76.3,66.7,30.09,SSE,157,5.6,12.8,73,0.00,,,0.00,Rainwise IP-100,2013-02-21 21:20:00,
2013-02-21 16:25:00,76.3,67.0,30.08,ESE,112,0.0,8.6,74,0.00,,,0.00,Rainwise IP-100,2013-02-21 21:25:00,
2013-02-21 16:30:00,76.3,67.0,30.08,SSE,157,3.3,6.5,74,0.00,,,0.00,Rainwise IP-100,2013-02-21 21:30:00,
2013-02-21 16:36:00,76.4,67.5,30.09,ESE,112,4.9,6.1,74,0.00,,,0.00,Rainwise IP-100,2013-02-21 21:36:00,
2013-02-21 16:41:00,76.6,67.5,30.09,ESE,112,4.9,8.4,74,0.00,,,0.00,Rainwise IP-100,2013-02-21 21:41:00,
2013-02-21 16:46:00,76.4,67.5,30.09,ESE,112,5.6,7.7,74,0.00,,,0.00,Rainwise IP-100,2013-02-21 21:46:00,
2013-02-21 16:51:00,76.2,67.0,30.09,ESE,112,2.6,8.4,74,0.00,,,0.00,Rainwise IP-100,2013-02-21 21:51:00,
2013-02-21 16:56:00,76.1,67.0,30.09,SE,135,6.1,10.5,74,0.00,,,0.00,Rainwise IP-100,2013-02-21 21:56:00,
2013-02-21 17:01:00,75.8,67.0,30.09,ESE,112,4.2,9.6,74,0.00,,,0.00,Rainwise IP-100,2013-02-21 22:01:00,
2013-02-21 17:06:00,75.8,67.0,30.09,SSE,157,2.3,8.9,74,0.00,,,0.00,Rainwise IP-100,2013-02-21 22:06:00,
2013-02-21 17:11:00,76.1,67.0,30.09,ESE,112,4.4,6.1,74,0.00,,,0.00,Rainwise IP-100,2013-02-21 22:11:00,
2013-02-21 17:17:00,76.2,67.0,30.09,SE,135,2.8,8.4,74,0.00,,,0.00,Rainwise IP-100,2013-02-21 22:17:00,
2013-02-21 17:22:00,76.1,67.0,30.09,SE,135,5.4,6.3,74,0.00,,,0.00,Rainwise IP-100,2013-02-21 22:22:00,
2013-02-21 17:27:00,75.9,67.0,30.09,SSE,157,4.4,9.3,74,0.00,,,0.00,Rainwise IP-100,2013-02-21 22:27:00,
2013-02-21 17:32:00,75.7,66.7,30.09,ESE,112,3.5,7.0,74,0.00,,,0.00,Rainwise IP-100,2013-02-21 22:32:00,
2013-02-21 17:37:00,75.7,66.7,30.09,East,90,2.8,6.1,74,0.00,,,0.00,Rainwise IP-100,2013-02-21 22:37:00,
2013-02-21 17:42:00,75.6,66.7,30.09,ESE,112,1.6,9.6,74,0.00,,,0.00,Rainwise IP-100,2013-02-21 22:42:00,
2013-02-21 17:47:00,75.3,66.7,30.09,ESE,112,2.6,8.2,74,0.00,,,0.00,Rainwise IP-100,2013-02-21 22:47:00,
2013-02-21 17:52:00,75.0,66.3,30.09,SE,135,2.8,8.2,74,0.00,,,0.00,Rainwise IP-100,2013-02-21 22:52:00,
2013-02-21 17:57:00,74.8,66.3,30.09,ESE,112,4.2,6.8,75,0.00,,,0.00,Rainwise IP-100,2013-02-21 22:57:00,
2013-02-21 18:03:00,74.6,66.3,30.09,SSE,157,2.3,8.9,75,0.00,,,0.00,Rainwise IP-100,2013-02-21 23:03:00,
2013-02-21 18:08:00,74.3,66.0,30.09,ESE,112,2.1,7.5,74,0.00,,,0.00,Rainwise IP-100,2013-02-21 23:08:00,
2013-02-21 18:13:00,74.3,66.3,30.09,ESE,112,7.5,9.8,75,0.00,,,0.00,Rainwise IP-100,2013-02-21 23:13:00,
2013-02-21 18:18:00,74.3,66.3,30.09,SSE,157,5.1,9.3,75,0.00,,,0.00,Rainwise IP-100,2013-02-21 23:18:00,
2013-02-21 18:23:00,74.2,66.3,30.09,ESE,112,6.3,11.9,76,0.00,,,0.00,Rainwise IP-100,2013-02-21 23:23:00,
2013-02-21 18:28:00,74.0,66.0,30.09,ESE,112,8.6,11.4,75,0.00,,,0.00,Rainwise IP-100,2013-02-21 23:28:00,
2013-02-21 18:33:00,74.0,65.5,30.10,SE,135,7.7,10.5,74,0.00,,,0.00,Rainwise IP-100,2013-02-21 23:33:00,
2013-02-21 18:39:00,74.0,65.5,30.09,ESE,112,3.5,11.0,74,0.00,,,0.00,Rainwise IP-100,2013-02-21 23:39:00,
2013-02-21 18:44:00,73.9,65.5,30.09,SSE,157,6.3,10.7,74,0.00,,,0.00,Rainwise IP-100,2013-02-21 23:44:00,
2013-02-21 18:49:00,74.0,65.0,30.10,ESE,112,5.4,10.5,73,0.00,,,0.00,Rainwise IP-100,2013-02-21 23:49:00,
2013-02-21 18:54:00,74.1,64.5,30.09,SE,135,11.0,11.4,72,0.00,,,0.00,Rainwise IP-100,2013-02-21 23:54:00,
2013-02-21 18:59:00,74.2,65.0,30.09,SE,135,2.8,13.5,72,0.00,,,0.00,Rainwise IP-100,2013-02-21 23:59:00,
2013-02-21 19:04:00,74.2,65.0,30.09,ESE,112,1.9,11.9,72,0.00,,,0.00,Rainwise IP-100,2013-02-22 00:04:00,
2013-02-21 19:09:00,74.2,64.5,30.09,SE,135,4.9,11.2,71,0.00,,,0.00,Rainwise IP-100,2013-02-22 00:09:00,
2013-02-21 19:14:00,74.2,65.0,30.09,SSE,157,4.2,11.0,72,0.00,,,0.00,Rainwise IP-100,2013-02-22 00:14:00,
2013-02-21 19:20:00,74.2,64.5,30.10,SSE,157,4.9,11.7,71,0.00,,,0.00,Rainwise IP-100,2013-02-22 00:20:00,
2013-02-21 19:25:00,74.2,64.0,30.10,ESE,112,2.8,10.5,70,0.00,,,0.00,Rainwise IP-100,2013-02-22 00:25:00,
2013-02-21 19:30:00,74.3,63.5,30.10,SE,135,2.6,9.6,69,0.00,,,0.00,Rainwise IP-100,2013-02-22 00:30:00,
2013-02-21 19:35:00,74.3,64.0,30.10,SSW,202,4.0,9.1,70,0.00,,,0.00,Rainwise IP-100,2013-02-22 00:35:00,
2013-02-21 19:40:00,74.3,64.5,30.10,SE,135,3.5,11.0,71,0.00,,,0.00,Rainwise IP-100,2013-02-22 00:40:00,
2013-02-21 19:45:00,74.3,64.5,30.10,ESE,112,2.8,10.3,71,0.00,,,0.00,Rainwise IP-100,2013-02-22 00:45:00,
2013-02-21 19:50:00,74.3,64.5,30.10,ESE,112,8.9,9.8,71,0.00,,,0.00,Rainwise IP-100,2013-02-22 00:50:00,
2013-02-21 19:56:00,74.3,64.5,30.09,SSE,157,4.7,11.2,71,0.00,,,0.00,Rainwise IP-100,2013-02-22 00:56:00,
2013-02-21 20:01:00,74.4,65.0,30.10,SSE,157,4.7,13.5,72,0.00,,,0.00,Rainwise IP-100,2013-02-22 01:01:00,
2013-02-21 20:06:00,74.3,65.0,30.10,SE,135,2.1,9.8,72,0.00,,,0.00,Rainwise IP-100,2013-02-22 01:06:00,
2013-02-21 20:11:00,74.3,65.0,30.10,ESE,112,1.4,13.1,72,0.00,,,0.00,Rainwise IP-100,2013-02-22 01:11:00,
2013-02-21 20:16:00,74.3,65.0,30.10,South,180,8.2,10.3,72,0.00,,,0.00,Rainwise IP-100,2013-02-22 01:16:00,
2013-02-21 20:21:00,74.3,65.0,30.10,SSE,157,2.1,10.3,72,0.00,,,0.00,Rainwise IP-100,2013-02-22 01:21:00,
2013-02-21 20:26:00,74.3,65.0,30.11,ESE,112,4.4,13.5,72,0.00,,,0.00,Rainwise IP-100,2013-02-22 01:26:00,
2013-02-21 20:31:00,74.3,65.0,30.10,ESE,112,1.2,7.7,72,0.00,,,0.00,Rainwise IP-100,2013-02-22 01:31:00,
2013-02-21 20:37:00,74.3,65.0,30.11,ESE,112,2.6,7.7,72,0.00,,,0.00,Rainwise IP-100,2013-02-22 01:37:00,
2013-02-21 20:42:00,74.3,65.5,30.11,SSE,157,7.2,7.2,73,0.00,,,0.00,Rainwise IP-100,2013-02-22 01:42:00,
2013-02-21 20:47:00,74.3,66.0,30.10,SSE,157,2.6,10.5,74,0.00,,,0.00,Rainwise IP-100,2013-02-22 01:47:00,
2013-02-21 20:52:00,74.3,66.0,30.11,ESE,112,4.2,10.5,74,0.00,,,0.00,Rainwise IP-100,2013-02-22 01:52:00,
2013-02-21 20:57:00,74.2,65.5,30.11,ESE,112,2.1,6.5,73,0.00,,,0.00,Rainwise IP-100,2013-02-22 01:57:00,
2013-02-21 21:02:00,74.2,66.0,30.11,ESE,112,4.2,6.1,74,0.00,,,0.00,Rainwise IP-100,2013-02-22 02:02:00,
2013-02-21 21:07:00,74.2,66.0,30.11,SSE,157,2.8,11.7,74,0.00,,,0.00,Rainwise IP-100,2013-02-22 02:07:00,
2013-02-21 21:13:00,74.2,66.3,30.10,SSE,157,6.1,9.6,75,0.00,,,0.00,Rainwise IP-100,2013-02-22 02:13:00,
2013-02-21 21:18:00,74.2,66.3,30.11,ESE,112,3.0,12.6,75,0.00,,,0.00,Rainwise IP-100,2013-02-22 02:18:00,
2013-02-21 21:23:00,74.2,66.3,30.10,East,90,4.0,10.0,76,0.00,,,0.00,Rainwise IP-100,2013-02-22 02:23:00,
2013-02-21 21:28:00,74.2,66.3,30.11,SE,135,4.7,9.8,76,0.00,,,0.00,Rainwise IP-100,2013-02-22 02:28:00,
2013-02-21 21:33:00,74.2,66.3,30.11,WSW,247,2.1,9.1,76,0.00,,,0.00,Rainwise IP-100,2013-02-22 02:33:00,
2013-02-21 21:38:00,74.2,66.3,30.11,SE,135,3.0,8.9,76,0.00,,,0.00,Rainwise IP-100,2013-02-22 02:38:00,
2013-02-21 21:43:00,74.2,66.7,30.11,ESE,112,1.6,12.8,77,0.00,,,0.00,Rainwise IP-100,2013-02-22 02:43:00,
2013-02-21 21:48:00,74.2,66.7,30.11,ESE,112,2.8,12.1,77,0.00,,,0.00,Rainwise IP-100,2013-02-22 02:48:00,
2013-02-21 21:54:00,74.2,66.7,30.11,ESE,112,3.3,9.8,77,0.00,,,0.00,Rainwise IP-100,2013-02-22 02:54:00,
2013-02-21 21:59:00,74.2,67.0,30.12,ESE,112,4.7,9.8,78,0.00,,,0.00,Rainwise IP-100,2013-02-22 02:59:00,
2013-02-21 22:04:00,74.0,66.7,30.11,SSE,157,6.3,9.8,78,0.00,,,0.00,Rainwise IP-100,2013-02-22 03:04:00,
2013-02-21 22:09:00,74.0,66.3,30.12,ENE,67,3.0,11.9,77,0.00,,,0.00,Rainwise IP-100,2013-02-22 03:09:00,
2013-02-21 22:14:00,74.0,66.3,30.11,SE,135,6.5,10.0,77,0.00,,,0.00,Rainwise IP-100,2013-02-22 03:14:00,
2013-02-21 22:19:00,74.1,66.7,30.12,SE,135,6.3,11.7,78,0.00,,,0.00,Rainwise IP-100,2013-02-22 03:19:00,
2013-02-21 22:24:00,74.0,66.7,30.12,SSE,157,5.8,11.0,78,0.00,,,0.00,Rainwise IP-100,2013-02-22 03:24:00,
2013-02-21 22:30:00,74.0,66.7,30.12,ESE,112,2.1,11.7,78,0.00,,,0.00,Rainwise IP-100,2013-02-22 03:30:00,
2013-02-21 22:35:00,74.0,66.7,30.12,South,180,1.9,8.9,78,0.00,,,0.00,Rainwise IP-100,2013-02-22 03:35:00,
2013-02-21 22:40:00,73.8,66.7,30.12,ESE,112,7.5,13.5,79,0.00,,,0.00,Rainwise IP-100,2013-02-22 03:40:00,
2013-02-21 22:45:00,73.8,66.7,30.11,ESE,112,3.3,10.3,78,0.00,,,0.00,Rainwise IP-100,2013-02-22 03:45:00,
2013-02-21 22:50:00,73.8,66.7,30.12,SE,135,7.0,12.6,79,0.00,,,0.00,Rainwise IP-100,2013-02-22 03:50:00,
2013-02-21 22:55:00,73.8,66.7,30.12,SSE,157,6.8,13.3,79,0.00,,,0.00,Rainwise IP-100,2013-02-22 03:55:00,
2013-02-21 23:00:00,73.8,66.7,30.12,ESE,112,2.3,13.8,79,0.00,,,0.00,Rainwise IP-100,2013-02-22 04:00:00,
2013-02-21 23:05:00,73.7,66.7,30.11,East,90,5.4,11.7,79,0.00,,,0.00,Rainwise IP-100,2013-02-22 04:05:00,
2013-02-21 23:11:00,73.7,66.7,30.12,East,90,4.4,10.5,79,0.00,,,0.00,Rainwise IP-100,2013-02-22 04:11:00,
2013-02-21 23:16:00,73.6,66.7,30.12,ESE,112,6.5,15.2,79,0.00,,,0.00,Rainwise IP-100,2013-02-22 04:16:00,
2013-02-21 23:21:00,73.6,66.7,30.11,ESE,112,4.9,11.2,79,0.00,,,0.00,Rainwise IP-100,2013-02-22 04:21:00,
2013-02-21 23:26:00,73.6,66.7,30.11,SE,135,4.7,11.0,79,0.00,,,0.00,Rainwise IP-100,2013-02-22 04:26:00,
2013-02-21 23:31:00,73.6,66.7,30.11,SE,135,7.7,13.1,79,0.00,,,0.00,Rainwise IP-100,2013-02-22 04:31:00,
2013-02-21 23:36:00,73.5,67.0,30.11,ESE,112,4.4,9.1,80,0.00,,,0.00,Rainwise IP-100,2013-02-22 04:36:00,
2013-02-21 23:41:00,73.5,66.7,30.11,ESE,112,2.1,13.3,79,0.00,,,0.00,Rainwise IP-100,2013-02-22 04:41:00,
2013-02-21 23:47:00,73.5,67.0,30.11,SSE,157,6.3,8.6,80,0.00,,,0.00,Rainwise IP-100,2013-02-22 04:47:00,
2013-02-21 23:52:00,73.4,67.0,30.11,ESE,112,12.1,12.1,81,0.00,,,0.00,Rainwise IP-100,2013-02-22 04:52:00,
2013-02-21 23:57:00,73.3,66.7,30.11,SSE,157,4.0,12.1,80,0.00,,,0.00,Rainwise IP-100,2013-02-22 04:57:00,